Cape Byron Observation History
Time Wind Speed Temp Pressure Rel. Hum Rain
24/09:00am N 17-23 kts 24.5°c 1012.0 hPa 91% 0.0mm
24/08:30am N 18-23 kts 23.8°c 1012.1 hPa 94% 0.0mm
24/08:00am N 17-23 kts 24.1°c 1012.0 hPa 96% 0.0mm
24/07:30am N 17-23 kts 23.5°c 1012.0 hPa 98% 0.0mm
24/07:00am N 16-23 kts 23.2°c 1011.5 hPa 100% 0.0mm
24/06:30am N 14-20 kts 22.6°c 1011.0 hPa 100% 0.0mm
24/06:00am N 17-23 kts 22.7°c 1010.2 hPa 100% 0.0mm
24/05:30am N 18-27 kts 22.6°c 1009.6 hPa 100% 0.0mm
24/05:00am N 16-23 kts 22.3°c 1009.3 hPa 100% 0.0mm
24/04:48am N 18-28 kts 22.5°c 1009.2 hPa 100% 0.0mm
24/04:30am N 18-25 kts 22.7°c 1009.3 hPa 99% 0.0mm
24/04:00am N 20-26 kts 22.8°c 1009.3 hPa 99% 0.0mm
24/03:30am N 19-27 kts 22.9°c 1009.4 hPa 98% 0.0mm
24/03:00am N 20-27 kts 23.2°c 1009.9 hPa 97% 0.0mm
24/02:30am N 21-28 kts 23.7°c 1010.6 hPa 99% 0.0mm
24/02:00am N 16-23 kts 23.2°c 1011.1 hPa 100% 0.0mm
24/01:30am N 14-20 kts 22.9°c 1011.3 hPa 99% 0.0mm
24/01:04am N 17-27 kts 23.2°c 1011.3 hPa 99% 0.0mm
24/01:00am N 18-27 kts 23.3°c 1011.3 hPa 99% 0.0mm
24/12:30am N 16-24 kts 23.2°c 1011.1 hPa 99% 0.0mm
24/12:00am N 16-23 kts 22.9°c 1010.9 hPa 98% 0.0mm
Time Wind Speed Temp Pressure Rel. Hum Rain
23/11:30pm N 18-27 kts 23.5°c 1010.9 hPa 96% 0.0mm
23/11:00pm N 19-26 kts 23.7°c 1011.1 hPa 96% 0.0mm
23/10:30pm N 18-25 kts 23.7°c 1011.5 hPa 98% 0.0mm
23/10:00pm N 20-27 kts 23.9°c 1011.4 hPa 98% 0.0mm
23/09:30pm N 20-26 kts 23.5°c 1011.0 hPa 99% 0.0mm
23/09:00pm N 17-24 kts 23.4°c 1010.9 hPa 98% 0.0mm
23/08:30pm NNE 18-24 kts 23.9°c 1010.7 hPa 95% 0.0mm
23/08:00pm N 19-26 kts 24.0°c 1010.4 hPa 93% 0.0mm
23/07:30pm N 20-26 kts 24.4°c 1010.1 hPa 93% 0.0mm
23/07:00pm N 17-25 kts 24.5°c 1010.0 hPa 91% 0.0mm
23/06:30pm NNE 19-29 kts 24.9°c 1009.4 hPa 90% 0.0mm
23/06:00pm NNE 19-27 kts 24.9°c 1008.8 hPa 92% 0.0mm
23/05:30pm N 20-26 kts 25.0°c 1008.9 hPa 90% 0.0mm
23/05:00pm N 19-25 kts 25.2°c 1009.0 hPa 88% 0.0mm
23/04:30pm NNE 19-30 kts 25.6°c 1009.2 hPa 87% 0.0mm
23/04:02pm NNE 21-31 kts 25.7°c 1009.1 hPa 88% 0.0mm
23/04:00pm NNE 22-30 kts 25.8°c 1009.1 hPa 88% 0.0mm
23/03:48pm NNE 21-31 kts 25.5°c 1009.3 hPa 89% 0.0mm
23/03:30pm NNE 22-30 kts 26.4°c 1009.7 hPa 84% 0.0mm
23/03:00pm NNE 20-30 kts 26.3°c 1009.8 hPa 84% 0.0mm
23/02:30pm NNE 18-29 kts 26.4°c 1010.3 hPa 85% 0.0mm
23/02:00pm NNE 21-32 kts 26.4°c 1010.4 hPa 86% 0.0mm
23/01:51pm NNE 21-32 kts 26.5°c 1010.6 hPa 86% 0.0mm
23/01:30pm NNE 21-29 kts 26.4°c 1010.8 hPa 86% 0.0mm
23/01:07pm NNE 21-31 kts 26.5°c 1011.2 hPa 86% 0.0mm
23/01:00pm NNE 21-30 kts 26.4°c 1011.3 hPa 87% 0.0mm
23/12:48pm NNE 21-31 kts 26.3°c 1011.4 hPa 87% 0.0mm
23/12:30pm NNE 23-29 kts 26.3°c 1011.5 hPa 87% 0.0mm
23/12:06pm NNE 22-32 kts 26.1°c 1011.8 hPa 88% 0.0mm
23/12:00pm NNE 22-30 kts 26.1°c 1011.9 hPa 88% 0.0mm
23/11:38am NNE 18-29 kts 25.7°c 1012.3 hPa 91% 0.0mm
23/11:30am NNE 18-26 kts 25.5°c 1012.5 hPa 92% 0.0mm
23/11:00am N 19-27 kts 24.7°c 1012.7 hPa 95% 0.0mm
23/10:30am N 19-26 kts 24.1°c 1012.5 hPa 98% 0.0mm
23/10:00am N 17-24 kts 23.6°c 1012.5 hPa 100% 0.0mm
23/09:30am N 16-23 kts 23.3°c 1012.8 hPa 100% 0.0mm
23/09:00am N 16-21 kts 23.5°c 1012.8 hPa 100% 0.2mm
23/08:30am N 16-20 kts 23.1°c 1012.6 hPa 100% 0.2mm
23/08:00am N 16-21 kts 22.9°c 1012.3 hPa 100% 0.2mm
23/07:30am N 17-23 kts 23.1°c 1011.9 hPa 100% 0.2mm
23/07:00am N 20-28 kts 23.3°c 1011.5 hPa 100% 0.2mm
23/06:41am N 20-30 kts 23.6°c 1011.1 hPa 100% 0.2mm
23/06:30am N 21-29 kts 23.3°c 1011.1 hPa 100% 0.2mm
23/06:00am N 17-23 kts 22.9°c 1011.1 hPa 100% 0.0mm
23/05:30am N 17-25 kts 23.1°c 1010.9 hPa 100% 0.0mm
23/05:26am N 15-25 kts 23.0°c 1010.8 hPa 100% 0.0mm
23/05:00am N 16-22 kts 22.7°c 1010.8 hPa 100% 0.0mm
23/04:30am N 18-28 kts 23.1°c 1010.5 hPa 100% 0.0mm
23/04:27am N 18-28 kts 23.2°c 1010.5 hPa 100% 0.0mm
23/04:00am N 17-22 kts 22.7°c 1010.4 hPa 100% 0.0mm
23/03:30am N 15-21 kts 22.6°c 1010.4 hPa 100% 0.0mm
23/03:00am N 17-22 kts 22.7°c 1010.3 hPa 100% 0.0mm
23/02:30am N 15-20 kts 22.6°c 1010.7 hPa 100% 0.0mm
23/02:00am N 18-25 kts 22.9°c 1010.8 hPa 100% 0.0mm
23/01:30am N 18-26 kts 23.4°c 1011.0 hPa 100% 0.0mm
23/01:00am N 16-22 kts 22.9°c 1011.3 hPa 100% 0.0mm
23/12:50am N 18-28 kts 23.1°c 1011.4 hPa 100% 0.0mm
23/12:30am N 19-25 kts 23.2°c 1011.4 hPa 100% 0.0mm
23/12:00am N 19-27 kts 23.5°c 1011.7 hPa 100% 0.0mm
Time Wind Speed Temp Pressure Rel. Hum Rain
22/11:30pm N 20-25 kts 23.5°c 1012.0 hPa 100% 0.0mm
22/11:00pm N 18-24 kts 23.3°c 1011.8 hPa 100% 0.0mm
22/10:30pm N 17-23 kts 23.5°c 1011.7 hPa 100% 0.0mm
22/10:00pm N 17-25 kts 23.7°c 1011.6 hPa 100% 0.0mm
22/09:30pm N 17-27 kts 23.7°c 1011.2 hPa 100% 0.0mm
22/09:28pm N 17-27 kts 23.7°c 1011.2 hPa 100% 0.0mm
22/09:00pm N 17-23 kts 23.7°c 1010.7 hPa 100% 0.0mm
22/08:30pm N 14-21 kts 23.5°c 1010.3 hPa 100% 0.0mm
22/08:00pm N 15-19 kts 23.6°c 1010.3 hPa 100% 0.0mm
22/07:30pm N 12-17 kts 23.7°c 1010.0 hPa 98% 0.0mm
22/07:00pm N 14-22 kts 24.3°c 1009.5 hPa 97% 0.0mm
22/06:30pm N 14-20 kts 24.7°c 1008.7 hPa 96% 0.0mm
22/06:00pm N 14-19 kts 24.8°c 1008.9 hPa 94% 0.0mm
22/05:30pm N 14-20 kts 25.2°c 1008.8 hPa 90% 0.0mm
22/05:00pm N 15-21 kts 25.9°c 1008.6 hPa 90% 0.0mm
22/04:30pm NNE 18-24 kts 26.0°c 1008.6 hPa 88% 0.0mm
22/04:00pm NNE 17-24 kts 26.9°c 1009.3 hPa 85% 0.0mm
22/03:30pm NNE 18-24 kts 27.2°c 1009.7 hPa 84% 0.0mm
22/03:00pm NNE 17-24 kts 27.2°c 1010.1 hPa 83% 0.0mm
22/02:30pm NNE 18-25 kts 26.9°c 1010.4 hPa 85% 0.0mm
22/02:03pm NNE 16-26 kts 26.4°c 1010.4 hPa 83% 0.0mm
22/02:00pm NNE 17-24 kts 26.6°c 1010.4 hPa 82% 0.0mm
22/01:30pm NNE 15-23 kts 26.9°c 1010.8 hPa 77% 0.0mm
22/01:00pm NNE 17-24 kts 27.0°c 1011.3 hPa 74% 0.0mm
22/12:30pm NNE 13-20 kts 27.3°c 1011.5 hPa 71% 0.0mm
22/12:00pm NNE 14-19 kts 27.1°c 1011.7 hPa 72% 0.0mm
22/11:30am NNE 15-21 kts 27.0°c 1011.8 hPa 72% 0.0mm
22/11:00am NNE 10-15 kts 26.7°c 1012.1 hPa 72% 0.0mm
22/10:30am N 9-14 kts 26.6°c 1012.2 hPa 71% 0.0mm
22/10:00am N 9-13 kts 26.7°c 1012.2 hPa 69% 0.0mm
22/09:30am NNE 11-14 kts 24.8°c 1012.0 hPa 78% 0.0mm
22/09:00am NNE 8-12 kts 24.6°c 1012.0 hPa 82% 0.8mm
22/08:30am N 5-8 kts 25.3°c 1012.0 hPa 82% 0.8mm
22/08:00am NNW 8-10 kts 24.0°c 1011.8 hPa 93% 0.8mm
22/07:30am NNW 10-12 kts 22.6°c 1011.1 hPa 99% 0.8mm
22/07:00am NNW 9-12 kts 22.1°c 1010.6 hPa 100% 0.8mm
22/06:30am N 13-16 kts 22.3°c 1010.1 hPa 100% 0.8mm
22/06:00am N 13-16 kts 21.9°c 1009.5 hPa 100% 0.8mm
22/05:30am NNW 8-11 kts 21.9°c 1009.0 hPa 100% 0.8mm
22/05:00am NNW 11-14 kts 22.0°c 1008.4 hPa 100% 0.8mm
22/04:30am N 13-18 kts 22.2°c 1008.2 hPa 100% 0.8mm
22/04:00am N 14-19 kts 22.9°c 1008.1 hPa 99% 0.8mm
22/03:30am N 12-18 kts 23.3°c 1008.3 hPa 99% 0.8mm
22/03:00am N 11-17 kts 22.8°c 1008.5 hPa 95% 0.8mm
22/02:30am N 14-19 kts 23.6°c 1008.7 hPa 97% 0.8mm
22/02:00am N 12-17 kts 23.1°c 1008.8 hPa 99% 0.8mm
22/01:30am N 13-18 kts 22.6°c 1009.0 hPa 99% 0.8mm
22/01:00am NNW 11-18 kts 22.6°c 1009.4 hPa 98% 0.8mm
22/12:30am N 13-19 kts 23.2°c 1009.3 hPa 96% 0.8mm
22/12:00am NNW 12-18 kts 23.2°c 1009.4 hPa 90% 0.8mm